QPF
0.00 0.00 0.01 0.06 0.20 0.33 0.30 0.15 0.07 0.04 0.02 0.01 0.01 0.01 0.01 0.04 0.08 0.17 0.23 0.10 0.03 0.00 0.00 0.00 0.00 0.00 0.00 0.00 0.00 0.00 0.00 0.00 0.00 0.00 0.00 0.00 0.00 0.01 0.01 0.01 0.01 0.01 0.01 0.01 0.01 0.01 0.01 0.01 0.01
0.00 0.00 0.02 0.09 0.26 0.35 0.19 0.07 0.04 0.02 0.01 0.01 0.01 0.01 0.01 0.05 0.05 0.04 0.12 0.20 0.05 0.00 0.00 0.00 0.00 0.00 0.00 0.00 0.00 0.01 0.01 0.01 0.01 0.00 0.00 0.00 0.00 0.01 0.01 0.01 0.01 0.01 0.01 0.01 0.01 0.00 0.00 0.00 0.01
0.00 0.01 0.04 0.10 0.17 0.15 0.06 0.04 0.02 0.01 0.02 0.01 0.01 0.01 0.03 0.10 0.11 0.07 0.06 0.09 0.04 0.01 0.00 0.00 0.00 0.00 0.00 0.00 0.00 0.01 0.01 0.00 0.01 0.01 0.00 0.00 0.00 0.01 0.01 0.01 0.02 0.02 0.01 0.00 0.00 0.00 0.00 0.01 0.01
0.00 0.02 0.06 0.10 0.07 0.02 0.01 0.01 0.01 0.01 0.01 0.01 0.02 0.04 0.07 0.07 0.06 0.05 0.05 0.04 0.02 0.01 0.00 0.00 0.00 0.00 0.01 0.00 0.00 0.00 0.01 0.00 0.01 0.01 0.01 0.00 0.00 0.01 0.01 0.01 0.01 0.02 0.01 0.00 0.00 0.00 0.00 0.01 0.01
0.00 0.01 0.04 0.06 0.03 0.01 0.00 0.01 0.01 0.01 0.01 0.02 0.04 0.10 0.16 0.06 0.04 0.05 0.06 0.06 0.06 0.03 0.01 0.00 0.01 0.01 0.00 0.00 0.00 0.00 0.00 0.00 0.00 0.01 0.01 0.00 0.00 0.01 0.01 0.01 0.01 0.02 0.01 0.00 0.00 0.00 0.00 0.01 0.01
0.00 0.01 0.02 0.03 0.01 0.00 0.00 0.00 0.01 0.01 0.01 0.03 0.11 0.13 0.14 0.08 0.05 0.06 0.07 0.13 0.23 0.10 0.05 0.03 0.03 0.02 0.01 0.00 0.00 0.00 0.00 0.00 0.01 0.00 0.00 0.00 0.00 0.00 0.00 0.00 0.01 0.01 0.01 0.00 0.00 0.00 0.00 0.01 0.01
0.00 0.01 0.01 0.01 0.00 0.00 0.01 0.01 0.01 0.00 0.00 0.03 0.08 0.12 0.11 0.09 0.09 0.08 0.09 0.17 0.18 0.11 0.06 0.07 0.06 0.04 0.03 0.01 0.00 0.00 0.00 0.00 0.00 0.01 0.01 0.00 0.00 0.01 0.00 0.00 0.00 0.01 0.01 0.01 0.00 0.00 0.00 0.00 0.01
0.00 0.00 0.00 0.00 0.00 0.00 0.00 0.00 0.00 0.00 0.01 0.02 0.06 0.13 0.11 0.09 0.08 0.09 0.11 0.17 0.15 0.09 0.07 0.14 0.11 0.06 0.04 0.02 0.01 0.01 0.01 0.01 0.00 0.00 0.01 0.01 0.01 0.01 0.01 0.00 0.00 0.01 0.01 0.00 0.00 0.00 0.00 0.00 0.01
0.00 0.00 0.00 0.00 0.00 0.00 0.00 0.00 0.00 0.00 0.01 0.03 0.04 0.05 0.07 0.06 0.07 0.11 0.18 0.25 0.33 0.20 0.08 0.09 0.14 0.10 0.05 0.02 0.02 0.01 0.01 0.01 0.00 0.00 0.01 0.01 0.01 0.02 0.01 0.01 0.01 0.01 0.01 0.00 0.00 0.01 0.01 0.01 0.01
0.00 0.00 0.00 0.00 0.00 0.00 0.00 0.00 0.00 0.00 0.01 0.04 0.07 0.10 0.07 0.07 0.10 0.16 0.25 0.32 0.59 0.38 0.16 0.12 0.09 0.07 0.05 0.03 0.02 0.02 0.01 0.01 0.01 0.01 0.02 0.03 0.03 0.03 0.03 0.03 0.02 0.01 0.01 0.00 0.01 0.01 0.01 0.01 0.01
0.00 0.00 0.00 0.00 0.00 0.00 0.00 0.00 0.00 0.00 0.01 0.02 0.07 0.10 0.07 0.10 0.16 0.19 0.23 0.29 0.34 0.27 0.25 0.21 0.13 0.10 0.07 0.05 0.04 0.03 0.02 0.01 0.01 0.02 0.02 0.03 0.03 0.03 0.03 0.02 0.03 0.02 0.01 0.01 0.01 0.01 0.01 0.02 0.03
0.00 0.00 0.00 0.00 0.00 0.00 0.00 0.00 0.00 0.00 0.00 0.01 0.04 0.12 0.09 0.07 0.10 0.17 0.24 0.30 0.30 0.26 0.35 0.43 0.26 0.20 0.12 0.11 0.08 0.04 0.02 0.01 0.01 0.01 0.02 0.02 0.02 0.03 0.03 0.02 0.02 0.02 0.02 0.02 0.01 0.01 0.01 0.02 0.04
0.00 0.00 0.00 0.00 0.00 0.00 0.00 0.00 0.00 0.00 0.00 0.02 0.04 0.10 0.07 0.06 0.07 0.13 0.20 0.27 0.39 0.47 0.47 0.46 0.34 0.22 0.13 0.11 0.07 0.05 0.03 0.03 0.02 0.02 0.02 0.01 0.01 0.01 0.01 0.02 0.02 0.02 0.02 0.02 0.01 0.02 0.02 0.02 0.03
0.00 0.00 0.00 0.00 0.00 0.00 0.00 0.00 0.00 0.01 0.01 0.01 0.04 0.12 0.06 0.06 0.05 0.11 0.21 0.32 0.51 0.60 0.53 0.46 0.35 0.26 0.15 0.12 0.08 0.06 0.04 0.04 0.04 0.02 0.01 0.01 0.00 0.00 0.00 0.02 0.02 0.02 0.02 0.02 0.01 0.02 0.01 0.01 0.02
0.00 0.00 0.00 0.01 0.01 0.01 0.01 0.01 0.01 0.01 0.01 0.01 0.03 0.09 0.08 0.05 0.06 0.11 0.20 0.39 0.60 0.69 0.58 0.47 0.33 0.35 0.22 0.12 0.09 0.06 0.09 0.13 0.05 0.02 0.01 0.01 0.00 0.00 0.01 0.02 0.02 0.02 0.02 0.01 0.01 0.01 0.01 0.02 0.01
0.00 0.01 0.01 0.02 0.02 0.02 0.02 0.02 0.01 0.02 0.02 0.02 0.02 0.08 0.10 0.08 0.09 0.11 0.22 0.41 0.73 0.80 0.61 0.44 0.30 0.27 0.19 0.12 0.09 0.06 0.07 0.08 0.05 0.03 0.02 0.01 0.00 0.00 0.01 0.01 0.01 0.01 0.01 0.01 0.02 0.01 0.01 0.01 0.01
0.01 0.01 0.01 0.03 0.03 0.02 0.02 0.02 0.01 0.02 0.02 0.02 0.03 0.04 0.06 0.09 0.13 0.12 0.22 0.38 0.60 0.79 0.67 0.50 0.37 0.27 0.16 0.12 0.10 0.06 0.04 0.03 0.02 0.02 0.01 0.01 0.00 0.00 0.00 0.00 0.00 0.01 0.01 0.01 0.01 0.01 0.01 0.00 0.00
0.01 0.01 0.01 0.02 0.02 0.02 0.02 0.03 0.03 0.03 0.03 0.03 0.04 0.05 0.06 0.11 0.19 0.15 0.19 0.32 0.49 0.58 0.61 0.53 0.39 0.26 0.14 0.10 0.10 0.09 0.06 0.04 0.03 0.01 0.01 0.01 0.00 0.00 0.00 0.00 0.00 0.00 0.00 0.01 0.01 0.01 0.00 0.00 0.00
0.01 0.00 0.01 0.01 0.01 0.01 0.02 0.03 0.04 0.05 0.05 0.04 0.04 0.05 0.07 0.11 0.20 0.17 0.18 0.17 0.31 0.34 0.34 0.39 0.38 0.24 0.12 0.08 0.08 0.08 0.07 0.04 0.03 0.01 0.01 0.00 0.00 0.00 0.00 0.00 0.00 0.00 0.00 0.00 0.00 0.00 0.00 0.00 0.00
0.00 0.00 0.01 0.01 0.01 0.01 0.02 0.03 0.05 0.07 0.06 0.04 0.03 0.03 0.05 0.10 0.16 0.17 0.24 0.31 0.26 0.23 0.16 0.19 0.22 0.19 0.10 0.06 0.06 0.07 0.07 0.04 0.02 0.00 0.00 0.00 0.00 0.00 0.00 0.00 0.00 0.00 0.00 0.00 0.00 0.00 0.00 0.00 0.00
0.00 0.00 0.01 0.00 0.01 0.01 0.02 0.06 0.09 0.08 0.08 0.04 0.02 0.02 0.03 0.04 0.07 0.12 0.20 0.42 0.38 0.24 0.15 0.11 0.11 0.11 0.08 0.06 0.07 0.07 0.07 0.03 0.01 0.01 0.00 0.00 0.00 0.00 0.00 0.00 0.00 0.00 0.00 0.00 0.00 0.00 0.00 0.00 0.00
0.00 0.00 0.00 0.00 0.00 0.01 0.02 0.05 0.09 0.07 0.06 0.03 0.02 0.03 0.03 0.03 0.05 0.09 0.16 0.37 0.42 0.21 0.13 0.08 0.07 0.07 0.06 0.05 0.06 0.07 0.04 0.01 0.01 0.01 0.00 0.00 0.00 0.00 0.00 0.00 0.00 0.00 0.00 0.00 0.00 0.00 0.00 0.00 0.00
0.00 0.00 0.00 0.00 0.01 0.02 0.03 0.06 0.10 0.06 0.04 0.03 0.02 0.03 0.03 0.02 0.04 0.09 0.14 0.21 0.26 0.18 0.11 0.07 0.06 0.07 0.07 0.06 0.04 0.06 0.03 0.01 0.01 0.01 0.00 0.00 0.00 0.00 0.00 0.00 0.00 0.00 0.00 0.00 0.00 0.00 0.00 0.00 0.00
0.00 0.00 0.00 0.01 0.03 0.05 0.08 0.09 0.11 0.08 0.05 0.03 0.01 0.01 0.02 0.02 0.03 0.06 0.08 0.09 0.11 0.13 0.10 0.08 0.07 0.07 0.08 0.08 0.07 0.05 0.03 0.01 0.01 0.01 0.00 0.00 0.00 0.00 0.00 0.00 0.00 0.00 0.00 0.00 0.00 0.00 0.00 0.00 0.00
0.00 0.00 0.01 0.02 0.04 0.09 0.08 0.09 0.09 0.08 0.05 0.03 0.01 0.01 0.01 0.02 0.03 0.05 0.05 0.05 0.06 0.07 0.06 0.06 0.05 0.05 0.09 0.11 0.09 0.05 0.03 0.01 0.01 0.01 0.00 0.00 0.00 0.00 0.00 0.00 0.00 0.00 0.00 0.00 0.00 0.00 0.00 0.00 0.00
0.00 0.00 0.01 0.03 0.04 0.08 0.12 0.15 0.12 0.06 0.03 0.02 0.01 0.01 0.02 0.02 0.02 0.03 0.04 0.04 0.04 0.04 0.05 0.06 0.05 0.04 0.07 0.13 0.12 0.06 0.03 0.01 0.01 0.00 0.00 0.00 0.00 0.00 0.00 0.00 0.00 0.00 0.00 0.00 0.00 0.00 0.00 0.00 0.00
0.00 0.00 0.01 0.02 0.02 0.08 0.15 0.19 0.15 0.05 0.04 0.02 0.02 0.02 0.02 0.02 0.02 0.02 0.02 0.03 0.04 0.03 0.03 0.05 0.05 0.05 0.05 0.04 0.04 0.03 0.02 0.01 0.01 0.00 0.00 0.00 0.00 0.00 0.00 0.00 0.00 0.00 0.00 0.00 0.00 0.00 0.00 0.00 0.00
0.01 0.01 0.02 0.02 0.03 0.07 0.14 0.16 0.14 0.09 0.08 0.05 0.03 0.03 0.03 0.02 0.02 0.01 0.01 0.03 0.05 0.04 0.04 0.04 0.05 0.04 0.04 0.03 0.02 0.01 0.01 0.01 0.01 0.01 0.00 0.00 0.00 0.00 0.00 0.00 0.00 0.00 0.00 0.00 0.00 0.00 0.00 0.00 0.00
0.01 0.01 0.02 0.03 0.03 0.06 0.11 0.12 0.08 0.07 0.07 0.07 0.08 0.09 0.05 0.02 0.02 0.02 0.02 0.03 0.06 0.06 0.06 0.05 0.04 0.04 0.04 0.03 0.01 0.01 0.01 0.01 0.01 0.01 0.00 0.00 0.00 0.00 0.00 0.00 0.00 0.00 0.00 0.00 0.00 0.00 0.00 0.00 0.00
0.01 0.02 0.03 0.04 0.05 0.05 0.08 0.09 0.07 0.05 0.05 0.08 0.08 0.09 0.05 0.03 0.03 0.03 0.03 0.03 0.05 0.08 0.07 0.05 0.05 0.06 0.07 0.07 0.04 0.02 0.02 0.02 0.02 0.01 0.01 0.01 0.01 0.01 0.01 0.01 0.00 0.00 0.00 0.00 0.00 0.00 0.00 0.00 0.00
MSLP
1010.71 1011.63 1012.62 1013.51 1014.12 1014.35 1014.19 1013.70 1013.01 1012.32 1011.79 1011.54 1011.62 1011.98 1012.52 1013.08 1013.53 1013.75 1013.72 1013.47 1013.11 1012.74 1012.48 1012.42 1012.57 1012.91 1013.34 1013.79 1014.18 1014.46 1014.61 1014.67 1014.69 1014.73 1014.83 1015.00 1015.24 1015.50 1015.76 1015.97 1016.12 1016.19 1016.22 1016.22 1016.23 1016.25 1016.29 1016.35 1016.42
1011.24 1012.30 1013.33 1014.12 1014.53 1014.50 1014.03 1013.24 1012.31 1011.45 1010.82 1010.55 1010.66 1011.07 1011.67 1012.29 1012.78 1013.04 1013.05 1012.86 1012.55 1012.27 1012.11 1012.14 1012.39 1012.81 1013.31 1013.82 1014.25 1014.56 1014.74 1014.83 1014.88 1014.94 1015.05 1015.23 1015.45 1015.69 1015.91 1016.08 1016.20 1016.26 1016.28 1016.29 1016.31 1016.35 1016.41 1016.48 1016.55
1011.88 1013.02 1014.00 1014.64 1014.81 1014.48 1013.72 1012.68 1011.56 1010.58 1009.92 1009.67 1009.84 1010.32 1010.98 1011.65 1012.17 1012.45 1012.49 1012.33 1012.08 1011.87 1011.79 1011.92 1012.25 1012.73 1013.29 1013.83 1014.29 1014.62 1014.83 1014.95 1015.03 1015.11 1015.23 1015.40 1015.60 1015.81 1015.99 1016.13 1016.22 1016.27 1016.30 1016.33 1016.37 1016.43 1016.51 1016.60 1016.68
1012.54 1013.66 1014.53 1014.96 1014.87 1014.27 1013.26 1012.03 1010.80 1009.80 1009.17 1009.00 1009.25 1009.82 1010.54 1011.23 1011.77 1012.05 1012.10 1011.97 1011.77 1011.62 1011.62 1011.81 1012.21 1012.73 1013.31 1013.86 1014.32 1014.66 1014.88 1015.02 1015.12 1015.22 1015.35 1015.51 1015.70 1015.88 1016.03 1016.15 1016.23 1016.28 1016.32 1016.37 1016.45 1016.54 1016.64 1016.74 1016.83
1013.11 1014.14 1014.81 1014.99 1014.65 1013.81 1012.63 1011.31 1010.07 1009.13 1008.62 1008.57 1008.94 1009.59 1010.35 1011.06 1011.58 1011.85 1011.90 1011.79 1011.64 1011.56 1011.63 1011.88 1012.31 1012.85 1013.42 1013.95 1014.38 1014.70 1014.91 1015.04 1015.15 1015.26 1015.41 1015.57 1015.75 1015.92 1016.05 1016.16 1016.23 1016.30 1016.37 1016.46 1016.57 1016.69 1016.82 1016.93 1017.01
1013.51 1014.34 1014.77 1014.70 1014.12 1013.11 1011.84 1010.53 1009.38 1008.59 1008.25 1008.36 1008.85 1009.57 1010.36 1011.05 1011.55 1011.80 1011.85 1011.77 1011.68 1011.67 1011.81 1012.11 1012.56 1013.09 1013.63 1014.10 1014.48 1014.74 1014.92 1015.04 1015.15 1015.28 1015.44 1015.61 1015.79 1015.95 1016.08 1016.18 1016.27 1016.35 1016.45 1016.58 1016.73 1016.88 1017.03 1017.14 1017.22
1013.65 1014.24 1014.39 1014.07 1013.30 1012.19 1010.92 1009.70 1008.72 1008.14 1008.00 1008.28 1008.88 1009.66 1010.44 1011.11 1011.57 1011.80 1011.86 1011.83 1011.81 1011.88 1012.10 1012.45 1012.92 1013.42 1013.90 1014.30 1014.60 1014.80 1014.93 1015.04 1015.15 1015.29 1015.47 1015.66 1015.84 1016.00 1016.13 1016.24 1016.33 1016.43 1016.56 1016.72 1016.90 1017.08 1017.25 1017.36 1017.43
1013.52 1013.84 1013.73 1013.18 1012.27 1011.13 1009.93 1008.86 1008.08 1007.72 1007.78 1008.22 1008.90 1009.70 1010.47 1011.09 1011.51 1011.73 1011.82 1011.86 1011.94 1012.11 1012.41 1012.81 1013.29 1013.76 1014.17 1014.50 1014.72 1014.86 1014.95 1015.04 1015.17 1015.33 1015.52 1015.73 1015.92 1016.09 1016.21 1016.31 1016.40 1016.51 1016.65 1016.84 1017.05 1017.26 1017.43 1017.56 1017.62
1013.16 1013.22 1012.87 1012.15 1011.15 1010.02 1008.93 1008.03 1007.47 1007.31 1007.54 1008.08 1008.81 1009.60 1010.33 1010.90 1011.29 1011.53 1011.67 1011.80 1011.98 1012.27 1012.65 1013.11 1013.60 1014.04 1014.40 1014.65 1014.80 1014.89 1014.96 1015.05 1015.19 1015.38 1015.61 1015.83 1016.03 1016.19 1016.30 1016.38 1016.46 1016.56 1016.71 1016.91 1017.14 1017.37 1017.57 1017.70 1017.77
1012.65 1012.49 1011.95 1011.11 1010.07 1008.99 1008.01 1007.28 1006.90 1006.90 1007.24 1007.83 1008.56 1009.31 1009.98 1010.51 1010.89 1011.16 1011.38 1011.62 1011.92 1012.31 1012.79 1013.30 1013.78 1014.20 1014.51 1014.70 1014.81 1014.88 1014.94 1015.05 1015.22 1015.45 1015.70 1015.95 1016.15 1016.30 1016.39 1016.44 1016.49 1016.58 1016.72 1016.92 1017.16 1017.41 1017.63 1017.79 1017.88
1012.10 1011.77 1011.11 1010.20 1009.16 1008.14 1007.27 1006.68 1006.41 1006.50 1006.88 1007.47 1008.16 1008.85 1009.46 1009.97 1010.36 1010.69 1011.00 1011.35 1011.77 1012.26 1012.80 1013.34 1013.82 1014.20 1014.47 1014.63 1014.72 1014.78 1014.87 1015.02 1015.23 1015.50 1015.79 1016.05 1016.26 1016.39 1016.46 1016.48 1016.50 1016.55 1016.68 1016.87 1017.12 1017.39 1017.64 1017.83 1017.95
1011.62 1011.19 1010.45 1009.52 1008.51 1007.56 1006.78 1006.27 1006.06 1006.17 1006.53 1007.07 1007.69 1008.31 1008.88 1009.38 1009.82 1010.22 1010.63 1011.08 1011.59 1012.15 1012.72 1013.26 1013.72 1014.07 1014.30 1014.44 1014.53 1014.62 1014.74 1014.94 1015.21 1015.52 1015.84 1016.12 1016.33 1016.45 1016.49 1016.49 1016.48 1016.52 1016.63 1016.81 1017.07 1017.35 1017.63 1017.86 1018.01
1011.28 1010.80 1010.05 1009.14 1008.18 1007.29 1006.58 1006.10 1005.90 1005.97 1006.26 1006.71 1007.25 1007.82 1008.37 1008.89 1009.38 1009.86 1010.36 1010.90 1011.47 1012.05 1012.61 1013.11 1013.52 1013.83 1014.03 1014.17 1014.27 1014.40 1014.58 1014.82 1015.14 1015.49 1015.84 1016.14 1016.35 1016.47 1016.51 1016.49 1016.48 1016.50 1016.60 1016.78 1017.04 1017.33 1017.63 1017.89 1018.08
1011.12 1010.63 1009.91 1009.05 1008.16 1007.34 1006.66 1006.19 1005.96 1005.96 1006.16 1006.51 1006.97 1007.50 1008.05 1008.61 1009.17 1009.73 1010.31 1010.89 1011.46 1012.02 1012.52 1012.95 1013.30 1013.55 1013.73 1013.87 1014.01 1014.18 1014.41 1014.71 1015.06 1015.44 1015.80 1016.10 1016.32 1016.45 1016.50 1016.51 1016.51 1016.54 1016.65 1016.83 1017.08 1017.37 1017.68 1017.96 1018.18
1011.12 1010.65 1009.98 1009.20 1008.39 1007.64 1007.00 1006.53 1006.24 1006.16 1006.26 1006.52 1006.92 1007.42 1007.99 1008.60 1009.23 1009.86 1010.48 1011.06 1011.60 1012.08 1012.49 1012.83 1013.09 1013.29 1013.46 1013.61 1013.79 1014.01 1014.29 1014.63 1015.00 1015.38 1015.74 1016.04 1016.26 1016.41 1016.50 1016.55 1016.59 1016.67 1016.79 1016.98 1017.22 1017.51 1017.80 1018.08 1018.31
1011.22 1010.77 1010.17 1009.50 1008.80 1008.13 1007.54 1007.06 1006.73 1006.56 1006.57 1006.76 1007.11 1007.59 1008.19 1008.85 1009.54 1010.21 1010.83 1011.38 1011.84 1012.21 1012.51 1012.74 1012.92 1013.09 1013.26 1013.45 1013.68 1013.96 1014.28 1014.63 1014.99 1015.35 1015.68 1015.96 1016.19 1016.37 1016.51 1016.63 1016.74 1016.87 1017.04 1017.24 1017.47 1017.73 1018.00 1018.25 1018.47
1011.32 1010.91 1010.42 1009.87 1009.31 1008.75 1008.22 1007.76 1007.39 1007.15 1007.08 1007.19 1007.50 1007.97 1008.58 1009.27 1009.99 1010.67 1011.26 1011.74 1012.10 1012.36 1012.53 1012.66 1012.79 1012.94 1013.14 1013.39 1013.69 1014.02 1014.38 1014.73 1015.07 1015.38 1015.66 1015.91 1016.13 1016.34 1016.54 1016.74 1016.94 1017.15 1017.36 1017.58 1017.81 1018.03 1018.25 1018.46 1018.65
1011.35 1011.01 1010.64 1010.26 1009.86 1009.44 1009.00 1008.57 1008.18 1007.88 1007.73 1007.76 1008.01 1008.45 1009.05 1009.75 1010.47 1011.12 1011.66 1012.05 1012.30 1012.44 1012.51 1012.57 1012.66 1012.83 1013.09 1013.42 1013.80 1014.20 1014.58 1014.93 1015.22 1015.46 1015.67 1015.87 1016.09 1016.32 1016.58 1016.87 1017.17 1017.46 1017.73 1017.98 1018.19 1018.37 1018.54 1018.69 1018.84
1011.26 1011.02 1010.82 1010.64 1010.44 1010.19 1009.86 1009.47 1009.06 1008.70 1008.46 1008.40 1008.56 1008.94 1009.50 1010.16 1010.84 1011.45 1011.92 1012.22 1012.37 1012.40 1012.39 1012.41 1012.51 1012.73 1013.07 1013.50 1013.98 1014.44 1014.86 1015.18 1015.42 1015.59 1015.72 1015.87 1016.05 1016.30 1016.62 1016.99 1017.38 1017.76 1018.09 1018.36 1018.57 1018.71 1018.82 1018.92 1019.03
1011.03 1010.95 1010.96 1011.02 1011.05 1010.99 1010.79 1010.45 1010.02 1009.57 1009.22 1009.03 1009.08 1009.36 1009.84 1010.43 1011.05 1011.59 1011.99 1012.21 1012.27 1012.24 1012.18 1012.18 1012.32 1012.60 1013.04 1013.58 1014.15 1014.69 1015.13 1015.44 1015.63 1015.73 1015.79 1015.87 1016.02 1016.28 1016.64 1017.08 1017.55 1018.00 1018.39 1018.69 1018.89 1019.01 1019.08 1019.13 1019.20
1010.70 1010.83 1011.11 1011.44 1011.73 1011.86 1011.78 1011.48 1011.01 1010.46 1009.97 1009.62 1009.52 1009.66 1010.03 1010.54 1011.08 1011.56 1011.89 1012.06 1012.07 1011.99 1011.91 1011.92 1012.09 1012.45 1012.98 1013.61 1014.27 1014.86 1015.34 1015.64 1015.79 1015.83 1015.82 1015.85 1015.98 1016.24 1016.62 1017.11 1017.64 1018.15 1018.58 1018.91 1019.11 1019.22 1019.26 1019.29 1019.35
1010.33 1010.72 1011.30 1011.93 1012.47 1012.79 1012.82 1012.54 1012.01 1011.33 1010.67 1010.14 1009.86 1009.85 1010.09 1010.51 1010.99 1011.42 1011.71 1011.85 1011.83 1011.74 1011.66 1011.69 1011.89 1012.30 1012.88 1013.58 1014.29 1014.93 1015.43 1015.73 1015.86 1015.86 1015.81 1015.81 1015.91 1016.16 1016.56 1017.08 1017.64 1018.19 1018.65 1018.99 1019.21 1019.32 1019.36 1019.39 1019.45
1010.01 1010.69 1011.58 1012.50 1013.28 1013.76 1013.87 1013.58 1012.96 1012.15 1011.30 1010.59 1010.12 1009.96 1010.08 1010.42 1010.85 1011.26 1011.55 1011.69 1011.68 1011.60 1011.52 1011.55 1011.76 1012.18 1012.78 1013.49 1014.22 1014.88 1015.38 1015.69 1015.81 1015.80 1015.74 1015.72 1015.81 1016.05 1016.45 1016.97 1017.55 1018.11 1018.59 1018.94 1019.17 1019.29 1019.35 1019.40 1019.48
1009.79 1010.77 1011.94 1013.11 1014.09 1014.70 1014.86 1014.53 1013.82 1012.85 1011.83 1010.94 1010.31 1010.01 1010.04 1010.32 1010.74 1011.16 1011.48 1011.65 1011.68 1011.62 1011.55 1011.57 1011.75 1012.13 1012.69 1013.37 1014.07 1014.71 1015.20 1015.51 1015.64 1015.64 1015.60 1015.59 1015.68 1015.92 1016.31 1016.82 1017.38 1017.93 1018.40 1018.76 1019.00 1019.15 1019.23 1019.31 1019.44
1009.71 1010.94 1012.34 1013.71 1014.83 1015.52 1015.68 1015.30 1014.48 1013.38 1012.21 1011.17 1010.42 1010.03 1010.00 1010.26 1010.69 1011.15 1011.53 1011.77 1011.85 1011.81 1011.75 1011.74 1011.87 1012.17 1012.65 1013.24 1013.87 1014.45 1014.92 1015.23 1015.37 1015.41 1015.39 1015.41 1015.52 1015.75 1016.13 1016.62 1017.15 1017.67 1018.13 1018.48 1018.73 1018.90 1019.02 1019.14 1019.31
1009.75 1011.16 1012.72 1014.20 1015.38 1016.09 1016.22 1015.79 1014.88 1013.67 1012.40 1011.27 1010.43 1009.99 1009.93 1010.20 1010.67 1011.20 1011.66 1011.97 1012.11 1012.11 1012.05 1012.01 1012.06 1012.27 1012.63 1013.10 1013.63 1014.14 1014.57 1014.86 1015.03 1015.10 1015.13 1015.19 1015.32 1015.57 1015.92 1016.38 1016.87 1017.36 1017.79 1018.13 1018.38 1018.57 1018.73 1018.89 1019.10
1009.86 1011.36 1012.98 1014.48 1015.65 1016.32 1016.41 1015.91 1014.94 1013.68 1012.35 1011.18 1010.32 1009.86 1009.81 1010.11 1010.62 1011.22 1011.75 1012.14 1012.35 1012.40 1012.34 1012.27 1012.26 1012.36 1012.60 1012.95 1013.37 1013.79 1014.16 1014.44 1014.63 1014.74 1014.82 1014.92 1015.09 1015.34 1015.69 1016.11 1016.56 1017.00 1017.40 1017.73 1017.99 1018.20 1018.39 1018.58 1018.82
1009.98 1011.47 1013.04 1014.48 1015.56 1016.15 1016.17 1015.62 1014.63 1013.37 1012.05 1010.89 1010.05 1009.62 1009.59 1009.91 1010.46 1011.10 1011.69 1012.14 1012.41 1012.51 1012.48 1012.40 1012.35 1012.38 1012.52 1012.76 1013.07 1013.41 1013.73 1013.99 1014.19 1014.33 1014.46 1014.60 1014.80 1015.06 1015.40 1015.80 1016.22 1016.63 1017.00 1017.32 1017.58 1017.81 1018.02 1018.25 1018.50
1010.04 1011.42 1012.85 1014.13 1015.07 1015.55 1015.50 1014.93 1013.96 1012.75 1011.51 1010.43 1009.64 1009.24 1009.24 1009.56 1010.11 1010.76 1011.37 1011.86 1012.18 1012.33 1012.34 1012.29 1012.23 1012.23 1012.32 1012.49 1012.73 1013.00 1013.27 1013.51 1013.71 1013.88 1014.04 1014.22 1014.44 1014.72 1015.06 1015.44 1015.84 1016.23 1016.59 1016.91 1017.18 1017.42 1017.66 1017.90 1018.16
1009.99 1011.18 1012.39 1013.46 1014.22 1014.57 1014.46 1013.91 1013.01 1011.91 1010.80 1009.83 1009.13 1008.78 1008.78 1009.08 1009.59 1010.19 1010.78 1011.27 1011.61 1011.81 1011.88 1011.89 1011.88 1011.90 1011.99 1012.13 1012.33 1012.56 1012.79 1013.00 1013.19 1013.37 1013.55 1013.76 1014.01 1014.30 1014.65 1015.03 1015.43 1015.82 1016.18 1016.51 1016.80 1017.06 1017.30 1017.55 1017.81
Thickness
5816 5814 5811 5800 5777 5758 5754 5771 5786 5793 5799 5814 5818 5810 5799 5791 5782 5772 5795 5803 5800 5795 5791 5789 5787 5785 5783 5781 5780 5779 5778 5777 5776 5774 5773 5771 5770 5768 5766 5764 5763 5761 5759 5758 5756 5755 5753 5752 5751
5817 5813 5803 5786 5763 5745 5755 5781 5789 5801 5810 5817 5817 5810 5800 5793 5798 5794 5795 5799 5798 5794 5790 5788 5785 5784 5782 5780 5778 5777 5776 5775 5774 5773 5771 5770 5769 5767 5765 5763 5761 5759 5758 5756 5754 5753 5752 5750 5749
5817 5813 5791 5773 5761 5756 5768 5791 5798 5811 5820 5818 5809 5806 5798 5792 5798 5796 5798 5798 5795 5791 5788 5786 5784 5782 5780 5778 5777 5775 5774 5774 5772 5771 5770 5768 5767 5766 5763 5761 5760 5758 5756 5754 5753 5751 5750 5749 5747
5813 5799 5785 5767 5762 5780 5791 5803 5810 5812 5816 5817 5807 5794 5797 5806 5805 5802 5798 5795 5791 5787 5786 5784 5782 5780 5778 5777 5775 5774 5773 5772 5771 5769 5768 5767 5766 5764 5762 5760 5758 5756 5754 5753 5751 5750 5748 5747 5746
5809 5788 5770 5761 5772 5796 5810 5818 5819 5810 5808 5809 5805 5787 5785 5804 5809 5801 5795 5792 5788 5784 5782 5780 5779 5778 5777 5775 5773 5772 5771 5770 5769 5768 5766 5765 5764 5763 5761 5758 5756 5754 5753 5751 5749 5748 5746 5745 5744
5793 5780 5760 5756 5779 5804 5818 5824 5819 5809 5806 5807 5800 5784 5780 5797 5798 5793 5790 5787 5786 5782 5778 5777 5776 5775 5773 5772 5771 5770 5769 5768 5767 5766 5765 5763 5762 5761 5759 5757 5755 5753 5751 5749 5747 5746 5744 5743 5742
5786 5774 5764 5771 5782 5799 5816 5827 5818 5809 5803 5805 5804 5781 5778 5786 5792 5790 5785 5783 5781 5778 5775 5773 5773 5772 5770 5769 5768 5768 5767 5766 5765 5764 5763 5761 5760 5759 5757 5755 5753 5751 5749 5747 5745 5743 5742 5740 5739
5800 5778 5770 5774 5783 5796 5822 5826 5824 5816 5807 5814 5808 5783 5774 5783 5789 5786 5781 5777 5775 5772 5771 5770 5769 5768 5767 5766 5766 5765 5765 5764 5763 5762 5761 5760 5758 5757 5755 5753 5751 5749 5747 5745 5743 5741 5740 5738 5737
5807 5772 5761 5776 5787 5801 5822 5819 5821 5825 5813 5808 5806 5799 5795 5791 5785 5778 5770 5766 5766 5765 5765 5766 5766 5765 5764 5764 5763 5763 5762 5762 5761 5760 5759 5758 5756 5755 5753 5751 5749 5747 5745 5743 5741 5739 5738 5736 5735
5794 5766 5778 5801 5808 5811 5820 5820 5817 5810 5800 5796 5795 5796 5794 5785 5778 5771 5764 5760 5759 5759 5760 5762 5762 5762 5762 5762 5760 5760 5760 5760 5759 5759 5758 5756 5754 5752 5751 5749 5747 5745 5743 5741 5739 5737 5735 5734 5732
5796 5786 5803 5813 5821 5822 5818 5819 5821 5803 5789 5793 5791 5789 5786 5778 5772 5768 5764 5761 5759 5759 5758 5758 5759 5760 5759 5759 5758 5758 5758 5758 5757 5757 5756 5754 5752 5750 5748 5746 5744 5742 5740 5739 5737 5735 5733 5731 5730
5801 5806 5815 5819 5828 5823 5819 5818 5811 5806 5802 5807 5803 5795 5785 5776 5768 5765 5761 5759 5758 5757 5756 5755 5755 5756 5757 5757 5756 5756 5756 5755 5755 5755 5754 5752 5750 5748 5746 5744 5742 5740 5738 5736 5735 5733 5731 5730 5729
5802 5806 5817 5823 5825 5824 5821 5812 5807 5803 5808 5807 5799 5790 5782 5775 5768 5764 5762 5759 5756 5753 5753 5753 5753 5754 5754 5753 5753 5754 5754 5754 5753 5752 5752 5751 5749 5746 5744 5742 5740 5739 5737 5735 5733 5731 5729 5728 5727
5806 5810 5814 5819 5820 5821 5812 5808 5804 5798 5804 5798 5791 5784 5781 5776 5769 5762 5758 5755 5752 5749 5749 5751 5752 5752 5753 5752 5752 5752 5752 5752 5751 5750 5750 5749 5748 5745 5743 5741 5739 5738 5736 5735 5733 5731 5729 5727 5727
5810 5801 5804 5811 5815 5815 5810 5794 5796 5799 5798 5789 5783 5780 5777 5772 5766 5760 5757 5754 5752 5748 5746 5746 5749 5751 5751 5751 5751 5750 5751 5750 5749 5748 5748 5747 5746 5744 5742 5740 5738 5737 5736 5734 5732 5730 5729 5727 5726
5798 5786 5778 5800 5810 5812 5797 5774 5792 5798 5792 5780 5777 5773 5769 5765 5763 5760 5756 5753 5750 5746 5743 5744 5746 5747 5749 5750 5750 5749 5749 5748 5747 5746 5746 5746 5744 5743 5741 5739 5737 5736 5735 5733 5731 5729 5727 5725 5723
5773 5763 5769 5787 5807 5807 5792 5775 5789 5794 5789 5777 5773 5770 5766 5760 5757 5756 5754 5752 5748 5745 5743 5742 5744 5745 5747 5747 5747 5746 5746 5746 5745 5745 5744 5743 5742 5741 5740 5738 5737 5735 5733 5732 5731 5728 5726 5723 5722
5756 5761 5770 5779 5800 5798 5783 5776 5783 5788 5785 5776 5771 5766 5762 5756 5753 5752 5751 5749 5745 5743 5742 5742 5742 5742 5744 5744 5744 5743 5743 5743 5743 5743 5743 5742 5741 5740 5739 5737 5735 5734 5732 5730 5729 5727 5726 5724 5722
5775 5771 5771 5786 5804 5792 5779 5774 5777 5782 5779 5773 5768 5765 5759 5755 5754 5752 5748 5748 5744 5741 5740 5739 5739 5740 5741 5741 5740 5739 5738 5739 5739 5741 5741 5741 5740 5739 5738 5736 5734 5733 5731 5729 5728 5727 5724 5722 5722
5778 5770 5774 5787 5802 5789 5773 5768 5774 5775 5773 5773 5769 5764 5759 5753 5749 5748 5745 5744 5741 5739 5739 5739 5738 5740 5741 5742 5742 5741 5739 5737 5738 5739 5740 5740 5739 5738 5737 5735 5733 5732 5730 5728 5727 5726 5723 5721 5721
5778 5774 5777 5781 5788 5781 5769 5756 5764 5773 5774 5773 5771 5767 5763 5756 5750 5748 5745 5742 5739 5738 5739 5739 5739 5739 5740 5741 5740 5738 5736 5735 5734 5735 5736 5738 5738 5737 5736 5734 5733 5731 5729 5727 5726 5725 5722 5718 5719
5769 5792 5793 5788 5768 5746 5754 5732 5753 5763 5765 5768 5768 5765 5761 5758 5753 5749 5746 5743 5741 5741 5742 5741 5740 5740 5740 5740 5739 5736 5733 5731 5733 5735 5736 5737 5737 5736 5735 5733 5732 5730 5729 5727 5726 5725 5723 5720 5716
5784 5799 5792 5782 5761 5740 5741 5732 5740 5755 5753 5759 5764 5765 5762 5760 5755 5750 5748 5746 5745 5743 5742 5741 5740 5739 5740 5739 5739 5737 5734 5733 5734 5735 5734 5734 5735 5735 5734 5733 5731 5729 5728 5726 5725 5724 5722 5720 5717
5798 5788 5775 5758 5743 5722 5729 5726 5729 5743 5751 5758 5764 5766 5763 5761 5757 5752 5750 5749 5746 5744 5742 5741 5739 5738 5739 5738 5738 5737 5734 5733 5732 5732 5731 5731 5732 5732 5733 5732 5730 5729 5727 5726 5724 5723 5721 5719 5717
5787 5759 5732 5725 5714 5713 5728 5724 5731 5757 5766 5767 5767 5767 5766 5763 5758 5753 5750 5748 5746 5744 5743 5742 5739 5737 5738 5737 5738 5737 5735 5734 5733 5732 5731 5730 5729 5729 5730 5731 5729 5727 5726 5725 5723 5721 5720 5718 5716
5777 5761 5728 5713 5709 5711 5722 5721 5743 5766 5773 5775 5774 5771 5767 5762 5760 5756 5754 5752 5750 5747 5745 5743 5741 5739 5739 5738 5738 5737 5736 5735 5734 5733 5732 5731 5731 5731 5731 5730 5728 5727 5726 5724 5722 5720 5718 5717 5715
5773 5765 5762 5734 5722 5708 5714 5729 5749 5767 5768 5769 5769 5765 5762 5761 5761 5760 5758 5755 5753 5750 5748 5747 5744 5742 5741 5740 5739 5737 5737 5735 5734 5734 5733 5732 5732 5732 5730 5729 5727 5726 5724 5722 5720 5718 5716 5715 5713
5785 5771 5746 5728 5710 5702 5708 5717 5728 5747 5755 5760 5760 5759 5761 5761 5761 5761 5760 5758 5755 5753 5751 5749 5747 5744 5743 5741 5740 5739 5737 5737 5735 5734 5732 5732 5731 5731 5729 5727 5725 5724 5722 5720 5718 5716 5714 5712 5710
5771 5762 5747 5729 5723 5706 5695 5713 5753 5753 5757 5758 5760 5762 5761 5761 5761 5760 5760 5759 5757 5754 5751 5749 5746 5744 5742 5741 5740 5739 5737 5736 5735 5733 5733 5732 5731 5729 5727 5726 5723 5721 5719 5717 5715 5713 5711 5709 5707
5775 5763 5748 5727 5721 5717 5707 5720 5766 5763 5762 5762 5762 5764 5765 5763 5762 5761 5760 5757 5755 5752 5750 5748 5747 5745 5744 5742 5740 5738 5737 5736 5734 5733 5733 5732 5730 5729 5727 5725 5722 5720 5718 5715 5713 5710 5709 5706 5703